Terminal Aerodrome Forecast
Issued by NWS

Home | Current Version | Previous Version | Text Only | Print | Product List | Glossary On
Versions: 1 2 3 4 5 6 7 8 9 10 11 12
000
FTUS44 KJAN 201100
TAFHKS
TAF
KHKS 201125Z 2012/2112 10006KT P6SM FEW060=

USA.gov is the U.S. government's official web portal to all federal, state and local government web resources and services.